CCA768 VVTS-ZJHK

Flight info

Callsign CCA768
Flight time 1h 40m
Altitude 31000
Route PATMA5B PATMA W12 PCA G221 BUNTA/K0861S0945 G221 SYX W222 PORAP PORAP9XA
Aircraft A320/M-SDE3FGHIRWY/LB1

Departure

Time 2026-04-23 16:11
Airport Tan Son Nhat International Airport (VVTS)

Arrival

Time 2026-04-23 17:51
Airport Haikou Meilan International Airport (ZJHK)
Time Latitude Longitude Altitude Speed Heading
2026-04-23 15:44 10.81294 106.65409 36 ft 0 kts 160°
2026-04-23 15:44 10.81295 106.65409 36 ft 0 kts 160°
2026-04-23 16:00 10.81304 106.65406 36 ft 4 kts 157°
2026-04-23 16:00 10.81328 106.65393 37 ft 4 kts 141°
2026-04-23 16:00 10.81345 106.65374 37 ft 4 kts 105°
2026-04-23 16:01 10.81346 106.65358 33 ft 1 kts 71°
2026-04-23 16:01 10.81345 106.65355 33 ft 3 kts 71°
2026-04-23 16:05 10.81360 106.65401 37 ft 14 kts 71°
2026-04-23 16:05 10.81403 106.65485 37 ft 11 kts 17°
2026-04-23 16:05 10.81477 106.65459 37 ft 12 kts 336°
2026-04-23 16:06 10.81565 106.65425 35 ft 12 kts 340°
2026-04-23 16:06 10.81625 106.65457 34 ft 12 kts 72°
2026-04-23 16:06 10.81656 106.65535 35 ft 12 kts 63°
2026-04-23 16:06 10.81692 106.65618 36 ft 14 kts 68°
2026-04-23 16:07 10.81727 106.65716 35 ft 16 kts 67°
2026-04-23 16:07 10.81769 106.65832 35 ft 19 kts 71°
2026-04-23 16:07 10.81817 106.65958 37 ft 20 kts 66°
2026-04-23 16:07 10.81869 106.66096 35 ft 22 kts 70°
2026-04-23 16:08 10.81927 106.66249 37 ft 24 kts 69°
2026-04-23 16:08 10.81990 106.66412 36 ft 26 kts 69°
2026-04-23 16:08 10.82058 106.66596 33 ft 29 kts 69°
2026-04-23 16:08 10.82120 106.66761 32 ft 20 kts 69°
2026-04-23 16:09 10.82172 106.66900 31 ft 22 kts 69°
2026-04-23 16:09 10.82234 106.67015 36 ft 12 kts 14°
2026-04-23 16:09 10.82267 106.67003 35 ft 1 kts 338°
2026-04-23 16:09 10.82287 106.66995 35 ft 5 kts 338°
2026-04-23 16:10 10.82329 106.66955 34 ft 13 kts 297°
2026-04-23 16:10 10.82334 106.66860 34 ft 16 kts 246°
2026-04-23 16:10 10.82240 106.66611 33 ft 69 kts 249°
2026-04-23 16:10 10.81992 106.65961 40 ft 125 kts 249°
2026-04-23 16:11 10.81611 106.64996 42 ft 167 kts 245°
2026-04-23 16:11 10.81150 106.63876 533 ft 173 kts 245°
2026-04-23 16:11 10.80727 106.62737 1165 ft 172 kts 245°
2026-04-23 16:11 10.80312 106.61600 1809 ft 171 kts 245°
2026-04-23 16:12 10.79900 106.60472 2363 ft 170 kts 246°
2026-04-23 16:12 10.79485 106.59350 2884 ft 170 kts 245°
2026-04-23 16:12 10.79220 106.58499 3217 ft 176 kts 255°
2026-04-23 16:12 10.79113 106.57730 3331 ft 191 kts 264°
2026-04-23 16:13 10.79110 106.57686 3336 ft 191 kts 265°
2026-04-23 16:13 10.79101 106.57230 3398 ft 200 kts 268°
2026-04-23 16:14 10.79287 106.55879 3571 ft 222 kts 284°
2026-04-23 16:14 10.79941 106.54368 3806 ft 247 kts 302°
2026-04-23 16:14 10.81153 106.53018 4199 ft 270 kts 322°
2026-04-23 16:14 10.82848 106.52128 4910 ft 279 kts 343°
2026-04-23 16:15 10.84783 106.51886 5694 ft 283 kts
2026-04-23 16:15 10.86749 106.52118 6513 ft 285 kts
2026-04-23 16:15 10.88710 106.52370 7625 ft 288 kts
2026-04-23 16:15 10.90711 106.52629 8073 ft 291 kts
2026-04-23 16:16 10.92728 106.52922 8829 ft 294 kts 13°
2026-04-23 16:16 10.94629 106.53599 9552 ft 295 kts 28°
2026-04-23 16:16 10.96340 106.54763 10207 ft 298 kts 41°
2026-04-23 16:16 10.97789 106.56369 10405 ft 319 kts 53°
2026-04-23 16:17 10.99193 106.58220 10524 ft 341 kts 53°
2026-04-23 16:17 11.00672 106.60173 10847 ft 353 kts 52°
2026-04-23 16:17 11.02190 106.62162 11371 ft 357 kts 52°
2026-04-23 16:17 11.03724 106.64165 11959 ft 360 kts 52°
2026-04-23 16:18 11.05272 106.66180 12521 ft 363 kts 52°
2026-04-23 16:18 11.06833 106.68212 13101 ft 365 kts 51°
2026-04-23 16:18 11.08404 106.70255 13674 ft 368 kts 52°
2026-04-23 16:18 11.09986 106.72317 14150 ft 371 kts 52°
2026-04-23 16:19 11.11582 106.74399 14638 ft 374 kts 52°
2026-04-23 16:19 11.12178 106.75175 14806 ft 376 kts 52°
2026-04-23 16:19 11.12897 106.76116 15000 ft 378 kts 52°
2026-04-23 16:19 11.13145 106.76439 15063 ft 378 kts 52°
2026-04-23 16:20 11.13741 106.77218 15233 ft 380 kts 52°
2026-04-23 16:20 11.13980 106.77530 15307 ft 380 kts 52°
2026-04-23 16:20 11.15456 106.79445 15688 ft 384 kts 51°
2026-04-23 16:21 11.17109 106.81599 16136 ft 388 kts 52°
2026-04-23 16:21 11.18774 106.83776 16576 ft 391 kts 52°
2026-04-23 16:21 11.20454 106.85971 17014 ft 395 kts 52°
2026-04-23 16:21 11.22151 106.88190 17451 ft 399 kts 52°
2026-04-23 16:22 11.23866 106.90431 17880 ft 403 kts 52°
2026-04-23 16:22 11.25591 106.92689 18307 ft 406 kts 52°
2026-04-23 16:22 11.27331 106.94965 18684 ft 409 kts 52°
2026-04-23 16:22 11.27843 106.95635 18795 ft 410 kts 52°
2026-04-23 16:24 11.28609 106.96630 19083 ft 406 kts 52°
2026-04-23 16:25 11.30359 106.98911 19401 ft 411 kts 52°
2026-04-23 16:25 11.32149 107.01256 19729 ft 416 kts 52°
2026-04-23 16:25 11.33907 107.03562 20125 ft 419 kts 52°
2026-04-23 16:25 11.35809 107.05821 20512 ft 422 kts 44°
2026-04-23 16:26 11.38069 107.07745 20877 ft 425 kts 37°
2026-04-23 16:26 11.40444 107.09548 21270 ft 427 kts 37°
2026-04-23 16:26 11.42832 107.11368 21636 ft 430 kts 37°
2026-04-23 16:26 11.45230 107.13198 22028 ft 432 kts 37°
2026-04-23 16:27 11.47641 107.15040 22373 ft 435 kts 37°
2026-04-23 16:27 11.50068 107.16894 22744 ft 437 kts 37°
2026-04-23 16:27 11.52511 107.18758 23103 ft 439 kts 37°
2026-04-23 16:27 11.54968 107.20636 23437 ft 442 kts 37°
2026-04-23 16:28 11.57432 107.22522 23739 ft 444 kts 37°
2026-04-23 16:28 11.59906 107.24416 24028 ft 446 kts 37°
2026-04-23 16:28 11.62389 107.26318 24338 ft 447 kts 37°
2026-04-23 16:28 11.64885 107.28227 24619 ft 450 kts 37°
2026-04-23 16:29 11.67395 107.30144 24916 ft 451 kts 37°
2026-04-23 16:29 11.69911 107.32068 25212 ft 453 kts 37°
2026-04-23 16:29 11.72434 107.34003 25501 ft 455 kts 37°
2026-04-23 16:29 11.74965 107.35944 25807 ft 456 kts 37°
2026-04-23 16:30 11.77514 107.37896 26082 ft 458 kts 37°
2026-04-23 16:30 11.80070 107.39850 26388 ft 460 kts 37°
2026-04-23 16:30 11.82630 107.41810 26674 ft 461 kts 37°
2026-04-23 16:30 11.85201 107.43783 26967 ft 463 kts 37°
2026-04-23 16:31 11.87776 107.45761 27256 ft 464 kts 37°
2026-04-23 16:31 11.90364 107.47745 27544 ft 466 kts 37°
2026-04-23 16:31 11.92960 107.49736 27829 ft 468 kts 37°
2026-04-23 16:31 11.95567 107.51736 28104 ft 470 kts 37°
2026-04-23 16:32 11.98188 107.53745 28381 ft 471 kts 37°
2026-04-23 16:32 12.00822 107.55760 28657 ft 473 kts 37°
2026-04-23 16:32 12.03462 107.57784 29017 ft 473 kts 37°
2026-04-23 16:32 12.06089 107.59804 29443 ft 472 kts 37°
2026-04-23 16:33 12.08711 107.61820 29856 ft 471 kts 37°
2026-04-23 16:33 12.11331 107.63832 30235 ft 470 kts 37°
2026-04-23 16:33 12.13063 107.65162 30479 ft 470 kts 37°
2026-04-23 16:33 12.16528 107.67824 30847 ft 469 kts 37°
2026-04-23 16:34 12.21737 107.71830 30906 ft 469 kts 37°
2026-04-23 16:34 12.26948 107.75849 30910 ft 469 kts 37°
2026-04-23 16:35 12.31281 107.79190 30908 ft 469 kts 37°
2026-04-23 16:35 12.36265 107.83485 30901 ft 469 kts 43°
2026-04-23 16:36 12.41047 107.88018 30895 ft 469 kts 43°
2026-04-23 16:36 12.45830 107.92553 30886 ft 468 kts 43°
2026-04-23 16:37 12.50616 107.97083 30881 ft 468 kts 43°
2026-04-23 16:37 12.55400 108.01615 30882 ft 468 kts 43°
2026-04-23 16:38 12.60177 108.06141 30883 ft 467 kts 43°
2026-04-23 16:38 12.64917 108.10642 30881 ft 467 kts 43°
2026-04-23 16:39 12.70057 108.14708 30878 ft 467 kts 34°
2026-04-23 16:39 12.75402 108.18497 30873 ft 467 kts 35°
2026-04-23 16:40 12.80744 108.22290 30875 ft 467 kts 35°
2026-04-23 16:40 12.86089 108.26080 30879 ft 467 kts 34°
2026-04-23 16:41 12.91425 108.29863 30886 ft 466 kts 35°
2026-04-23 16:41 12.96716 108.33627 30886 ft 465 kts 35°
2026-04-23 16:42 13.02028 108.37412 30879 ft 465 kts 35°
2026-04-23 16:42 13.07346 108.41196 30880 ft 465 kts 34°
2026-04-23 16:43 13.12667 108.44970 30868 ft 465 kts 34°
2026-04-23 16:43 13.17984 108.48758 30866 ft 465 kts 34°
2026-04-23 16:44 13.23306 108.52548 30869 ft 465 kts 34°
2026-04-23 16:44 13.28622 108.56340 30871 ft 464 kts 34°
2026-04-23 16:45 13.33894 108.60095 30873 ft 464 kts 34°
2026-04-23 16:45 13.39201 108.63874 30872 ft 464 kts 34°
2026-04-23 16:46 13.44501 108.67654 30871 ft 464 kts 34°
2026-04-23 16:46 13.49799 108.71436 30874 ft 464 kts 34°
2026-04-23 16:47 13.55109 108.75213 30880 ft 463 kts 34°
2026-04-23 16:47 13.60401 108.78980 30879 ft 463 kts 35°
2026-04-23 16:48 13.65687 108.82763 30876 ft 463 kts 35°
2026-04-23 16:48 13.70972 108.86542 30877 ft 463 kts 35°
2026-04-23 16:49 13.76259 108.90324 30875 ft 463 kts 35°
2026-04-23 16:49 13.81544 108.94106 30874 ft 463 kts 34°
2026-04-23 16:50 13.86829 108.97887 30876 ft 462 kts 35°
2026-04-23 16:50 13.92082 109.01637 30869 ft 462 kts 33°
2026-04-23 16:51 13.97919 109.04335 30867 ft 462 kts 14°
2026-04-23 16:51 14.04261 109.05312 30862 ft 462 kts
2026-04-23 16:52 14.10652 109.06076 30860 ft 462 kts
2026-04-23 16:52 14.17039 109.06847 30857 ft 462 kts
2026-04-23 16:53 14.23386 109.07618 30860 ft 462 kts
2026-04-23 16:53 14.29775 109.08397 30860 ft 462 kts
2026-04-23 16:54 14.36159 109.09171 30862 ft 462 kts
2026-04-23 16:54 14.42551 109.09949 30863 ft 462 kts
2026-04-23 16:55 14.48944 109.10730 30864 ft 462 kts
2026-04-23 16:55 14.55329 109.11510 30865 ft 462 kts
2026-04-23 16:56 14.61716 109.12291 30861 ft 462 kts
2026-04-23 16:56 14.68099 109.13072 30860 ft 462 kts
2026-04-23 16:57 14.74450 109.13848 30858 ft 462 kts
2026-04-23 16:57 14.77626 109.14234 32313 ft 455 kts
2026-04-23 16:57 14.80732 109.14613 30857 ft 457 kts
2026-04-23 16:58 14.87057 109.15381 30856 ft 462 kts
2026-04-23 16:58 14.93460 109.16166 30856 ft 463 kts
2026-04-23 16:59 14.99863 109.16949 30851 ft 463 kts
2026-04-23 16:59 15.06269 109.17725 30852 ft 463 kts
2026-04-23 17:00 15.12677 109.18512 30856 ft 463 kts
2026-04-23 17:00 15.19083 109.19307 30856 ft 464 kts
2026-04-23 17:01 15.25502 109.20089 30854 ft 464 kts
2026-04-23 17:01 15.31881 109.20872 30853 ft 465 kts
2026-04-23 17:02 15.38307 109.21671 30862 ft 465 kts
2026-04-23 17:02 15.44728 109.22462 30863 ft 465 kts
2026-04-23 17:03 15.51158 109.23250 30863 ft 465 kts
2026-04-23 17:03 15.57592 109.24041 30861 ft 466 kts
2026-04-23 17:04 15.64039 109.24824 30862 ft 466 kts
2026-04-23 17:04 15.70484 109.25603 30859 ft 466 kts
2026-04-23 17:05 15.76929 109.26391 30860 ft 466 kts
2026-04-23 17:05 15.83332 109.27179 30857 ft 466 kts
2026-04-23 17:06 15.89785 109.27980 30854 ft 467 kts
2026-04-23 17:06 15.96242 109.28777 30849 ft 468 kts
2026-04-23 17:07 16.02708 109.29565 30855 ft 468 kts
2026-04-23 17:07 16.09182 109.30358 30857 ft 468 kts
2026-04-23 17:08 16.15660 109.31154 30861 ft 468 kts
2026-04-23 17:08 16.22146 109.31950 30853 ft 469 kts
2026-04-23 17:09 16.28644 109.32747 30850 ft 470 kts
2026-04-23 17:09 16.35100 109.33546 30854 ft 471 kts
2026-04-23 17:10 16.41612 109.34343 30858 ft 471 kts
2026-04-23 17:10 16.48126 109.35145 30865 ft 471 kts
2026-04-23 17:11 16.54637 109.35947 30866 ft 471 kts
2026-04-23 17:11 16.61154 109.36755 30869 ft 471 kts
2026-04-23 17:12 16.67674 109.37560 30870 ft 472 kts
2026-04-23 17:12 16.74195 109.38365 30871 ft 472 kts
2026-04-23 17:13 16.80718 109.39086 30874 ft 470 kts 360°
2026-04-23 17:13 16.87118 109.38197 30876 ft 466 kts 341°
2026-04-23 17:14 16.93270 109.36068 30881 ft 466 kts 340°
2026-04-23 17:14 16.99417 109.33943 30880 ft 466 kts 340°
2026-04-23 17:15 17.05572 109.31815 30878 ft 466 kts 340°
2026-04-23 17:15 17.11728 109.29687 30878 ft 465 kts 340°
2026-04-23 17:16 17.17873 109.27560 30888 ft 464 kts 339°
2026-04-23 17:16 17.23999 109.25428 30891 ft 463 kts 339°
2026-04-23 17:17 17.30110 109.23307 30890 ft 462 kts 339°
2026-04-23 17:17 17.36211 109.21196 30897 ft 461 kts 339°
2026-04-23 17:18 17.45363 109.18009 30982 ft 462 kts 339°
2026-04-23 17:19 17.51603 109.16436 30980 ft 463 kts 353°
2026-04-23 17:19 17.58015 109.16406 30982 ft 464 kts 358°
2026-04-23 17:20 17.64465 109.16468 30979 ft 464 kts 358°
2026-04-23 17:21 17.77378 109.16626 30978 ft 464 kts 358°
2026-04-23 17:21 17.87065 109.16770 30979 ft 464 kts 358°
2026-04-23 17:22 17.96747 109.16881 30980 ft 464 kts 358°
2026-04-23 17:23 18.05351 109.16995 30980 ft 464 kts 358°
2026-04-23 17:24 18.15050 109.17124 30993 ft 464 kts 358°
2026-04-23 17:24 18.24722 109.17629 30988 ft 468 kts 11°
2026-04-23 17:25 18.30533 109.20638 30992 ft 477 kts 37°
2026-04-23 17:25 18.32831 109.23098 30988 ft 480 kts 51°
2026-04-23 17:26 18.35926 109.29342 30985 ft 483 kts 65°
2026-04-23 17:26 18.38586 109.35848 30982 ft 484 kts 65°
2026-04-23 17:27 18.42585 109.45617 30981 ft 484 kts 65°
2026-04-23 17:27 18.45246 109.52131 30977 ft 485 kts 65°
2026-04-23 17:28 18.48432 109.58352 30981 ft 481 kts 50°
2026-04-23 17:28 18.53267 109.63110 30977 ft 474 kts 30°
2026-04-23 17:29 18.59081 109.66183 30976 ft 470 kts 21°
2026-04-23 17:30 18.68034 109.70458 30985 ft 471 kts 21°
2026-04-23 17:30 18.76988 109.74749 30993 ft 472 kts 21°
2026-04-23 17:31 18.79970 109.76176 30839 ft 469 kts 21°
2026-04-23 17:31 18.82944 109.77600 29509 ft 472 kts 21°
2026-04-23 17:31 18.85972 109.79047 27570 ft 482 kts 21°
2026-04-23 17:31 18.89038 109.80513 26138 ft 482 kts 21°
2026-04-23 17:32 18.92038 109.81957 25677 ft 462 kts 21°
2026-04-23 17:32 18.94905 109.83336 25368 ft 457 kts 21°
2026-04-23 17:32 18.97816 109.84733 24349 ft 464 kts 21°
2026-04-23 17:32 19.00783 109.86149 23238 ft 472 kts 21°
2026-04-23 17:33 19.03784 109.87581 22471 ft 469 kts 21°
2026-04-23 17:33 19.06730 109.88995 21771 ft 458 kts 22°
2026-04-23 17:33 19.09601 109.90381 20598 ft 449 kts 22°
2026-04-23 17:33 19.12417 109.91741 19480 ft 441 kts 22°
2026-04-23 17:34 19.15190 109.93077 18419 ft 434 kts 22°
2026-04-23 17:34 19.17917 109.94395 17274 ft 427 kts 22°
2026-04-23 17:34 19.23209 109.97004 15112 ft 412 kts 23°
2026-04-23 17:35 19.25861 109.98055 14082 ft 402 kts 13°
2026-04-23 17:35 19.31163 109.99193 12614 ft 370 kts
2026-04-23 17:35 19.33602 109.99693 12072 ft 354 kts
2026-04-23 17:36 19.35978 110.00178 11516 ft 342 kts
2026-04-23 17:36 19.38301 110.00650 11072 ft 341 kts
2026-04-23 17:36 19.40644 110.01126 10671 ft 341 kts
2026-04-23 17:36 19.42919 110.01590 10539 ft 322 kts
2026-04-23 17:37 19.45046 110.02028 10469 ft 306 kts
2026-04-23 17:37 19.47110 110.02527 10228 ft 301 kts 12°
2026-04-23 17:37 19.51158 110.03730 9853 ft 302 kts 14°
2026-04-23 17:38 19.53161 110.04356 9445 ft 299 kts 14°
2026-04-23 17:38 19.55167 110.04979 9047 ft 301 kts 14°
2026-04-23 17:38 19.57187 110.05600 8631 ft 303 kts 14°
2026-04-23 17:38 19.59186 110.06208 8219 ft 295 kts 14°
2026-04-23 17:39 19.61130 110.06794 7835 ft 286 kts 14°
2026-04-23 17:39 19.63015 110.07361 7457 ft 277 kts 14°
2026-04-23 17:39 19.64851 110.07911 7091 ft 270 kts 14°
2026-04-23 17:39 19.66675 110.08452 6727 ft 273 kts 14°
2026-04-23 17:40 19.68504 110.08993 6355 ft 270 kts 14°
2026-04-23 17:40 19.70271 110.09516 5984 ft 263 kts 14°
2026-04-23 17:40 19.72012 110.10033 5637 ft 256 kts 14°
2026-04-23 17:40 19.73699 110.10537 5293 ft 248 kts 15°
2026-04-23 17:41 19.75336 110.11028 4967 ft 241 kts 15°
2026-04-23 17:41 19.78485 110.11967 4328 ft 233 kts 15°
2026-04-23 17:41 19.80051 110.12435 4009 ft 234 kts 15°
2026-04-23 17:42 19.83201 110.13375 3366 ft 236 kts 16°
2026-04-23 17:42 19.84789 110.13819 3075 ft 235 kts
2026-04-23 17:42 19.86377 110.13863 3012 ft 221 kts 359°
2026-04-23 17:43 19.87866 110.13857 3121 ft 213 kts 359°
2026-04-23 17:43 19.89325 110.13853 3128 ft 207 kts 359°
2026-04-23 17:43 19.90773 110.13845 3031 ft 210 kts 360°
2026-04-23 17:43 19.92211 110.13909 3010 ft 205 kts 12°
2026-04-23 17:44 19.93523 110.14452 3030 ft 203 kts 33°
2026-04-23 17:44 19.94552 110.15460 3014 ft 201 kts 55°
2026-04-23 17:44 19.95269 110.18222 3009 ft 198 kts 92°
2026-04-23 17:45 19.95273 110.19687 3002 ft 198 kts 91°
2026-04-23 17:45 19.95284 110.22626 3006 ft 199 kts 91°
2026-04-23 17:45 19.95290 110.24087 3004 ft 198 kts 91°
2026-04-23 17:46 19.95303 110.26995 3003 ft 191 kts 91°
2026-04-23 17:46 19.95310 110.28380 2914 ft 185 kts 91°
2026-04-23 17:46 19.95315 110.29731 2716 ft 181 kts 91°
2026-04-23 17:47 19.95316 110.30091 2659 ft 181 kts 91°
2026-04-23 17:47 19.95317 110.30604 2563 ft 181 kts 90°
2026-04-23 17:47 19.95329 110.33056 2147 ft 153 kts 90°
2026-04-23 17:48 19.95333 110.34162 1951 ft 148 kts 91°
2026-04-23 17:48 19.95337 110.35246 1773 ft 145 kts 91°
2026-04-23 17:48 19.95341 110.36306 1587 ft 143 kts 90°
2026-04-23 17:48 19.95345 110.37353 1403 ft 144 kts 90°
2026-04-23 17:49 19.95349 110.38431 1209 ft 144 kts 90°
2026-04-23 17:49 19.95352 110.39475 1031 ft 143 kts 89°
2026-04-23 17:49 19.95356 110.40534 855 ft 144 kts 88°
2026-04-23 17:49 19.95360 110.41597 675 ft 144 kts 87°
2026-04-23 17:50 19.95363 110.42661 499 ft 144 kts 88°
2026-04-23 17:50 19.95370 110.44788 117 ft 144 kts 87°
2026-04-23 17:50 19.95377 110.45782 57 ft 112 kts 90°
2026-04-23 17:51 19.95378 110.46431 56 ft 64 kts 90°
2026-04-23 17:51 19.95377 110.46874 58 ft 58 kts 91°
2026-04-23 17:51 19.95263 110.47134 58 ft 20 kts 158°
2026-04-23 17:52 19.95214 110.47057 58 ft 17 kts 276°
2026-04-23 17:52 19.95206 110.46639 58 ft 39 kts 270°
2026-04-23 17:52 19.95206 110.46374 58 ft 25 kts 265°
2026-04-23 17:53 19.95034 110.46258 52 ft 17 kts 244°
2026-04-23 17:53 19.94986 110.46159 54 ft 0 kts 243°
2026-04-23 17:53 19.94986 110.46158 54 ft 0 kts 243°